Showing default

O3B FM9, 40351

Orbit data source: Space-Track

O3B FM9, 40351 is a payload satellite owned by O3B (JE) that was launched on Thu, 18 Dec 2014 UTC via a SOYUZ-ST-B launch vehicle from the French Guiana (FRGUI). Payload-class satellites include a variety of spacecraft equipped with specific instruments for various scientific and technological missions. These include communications satellites like Starlink; space stations such as the ISS; scientific satellites like the Hubble; Earth observation satellites from companies like Planet Labs, Umbra, and HawkEye 360; GPS; miniature CubeSats for education and research; and military/defense satellites.

Loading next visibility...
Identifier
40351, 2014-083D
Orbit
Active
Country
Flag of UnknownUnknown / O3B
Related business
Manufacturer
Thales Alenia
Mission
Operational Commercial Communications
Bus & Motor
PRISMA?, LS-400 AOCS?
Mass
700 kg wet, ~500 kg dry
Launch date (UTC)
2014-12-18 (11 years ago)
Launch vehicle
SOYUZ-ST-B
Launch site
French Guiana (FRGUI)
Object type
Payload
Rocket body
Debris
Shape & HBR
Trap Box + 2 Pan, 6.0 m
Radar Cross Section
21.980 m², Large (>1 m²)

Expand to show TLE details & history
Last TLE update: 17 hours ago

TLE from 17 hours ago
0 O3B FM9
1 40351U 14083D   25348.12732749 -.00000019  00000-0  00000-0 0  9997
2 40351   0.0516   6.2207 0002784 257.0333  96.7162  5.00115851200816
Epoch: 2025-12-14T03:03Z
TLE epoch observation values (Epoch: 2025-12-14T03:03:21.095Z)
Latitude
-0.00383°
Longitude
-128.88255°
Altitude
8,064.838 km
Speed
5.254 km/s
True Right ascension
00h 00m 00s
True Declination
0° 00' 14"
Sunlit
Object was in daylight at epoch
Visualization orbit readout
Latitude
Unknown
Longitude
Unknown
Altitude
Unknown
Speed
Unknown
Apparent Right ascension
Unknown
Apparent Declination
Unknown
Sunlit
N/A
Visualization observer readout
Local Sidereal Time
18:24:05
Azimuth
Unknown
Elevation
Unknown
Doppler factor
Unknown
Orbital elements
Apogee altitude
8,072.964 km
Perigee altitude
8,064.92 km
Semi-major axis
14,447.079 km
Eccentricity
0.00028
Inclination
0.0516°
RAAN
6.2207°
Arg. of periapsis
257.0333°
True anomaly
96.74788°
Mean anomaly
96.7162°
Eccentric anomaly
96.73204°
Mean motion
1.24989 °/min
Orbital period
288.02 mins
BSTAR
0
Loading maneuver chart data...
Computing Atmospheric mass density...
Loading historical data...
Loading historical data...
Loading historical data...
Loading historical data...
Loading historical data...
Loading historical data...
Loading historical data...
Other satellites on launch #83 in the year 2014 (2014-12-18 UTC)

Documentation

Showing up to 5 results
|